{"data":{"norad_id":38734,"intl_designator":"2012-041B","name":"GONETS-M 3","alt_names":[],"object_type":"PAYLOAD","status":"ACTIVE","operator":null,"country":"CIS","launch_date":"2012-07-28","launch_site_code":"PLMSC","launch_vehicle":null,"mission":null,"orbit_class":"UNKNOWN","rcs_meters":1.66,"size_class":null,"mass_kg":null,"dimensions":null,"purposes":[],"wikipedia_slug":null,"has_3d_model":false,"image_url":null,"decayed_at":null,"tle_current":{"epoch":"2026-05-25T03:58:09.918048Z","epoch_age_seconds":50905,"freshness":"FRESH","line1":"1 38734U 12041B   26145.16539257  .00000005  00000+0 -38520-4 0  9996","line2":"2 38734  82.4740  79.2298 0017619 109.0657 251.2334 12.44901889627800","mean_motion":12.44901889,"eccentricity":0.0017619,"inclination_deg":82.474,"raan_deg":79.2298,"arg_perigee_deg":109.0657,"mean_anomaly_deg":251.2334,"bstar":-3.852e-5,"rev_number":62780,"period_min":115.67176600212,"perigee_km":1472.0360841581,"apogee_km":1499.7473485487,"semimajor_km":7864.0287163534,"source":"CELESTRAK","updated_at":"2026-05-25T13:37:55.304343Z"}}}